When you browse on this site, cookies collect data to enhance your experience and personalize the content and advertising you see.
Visit our Privacy Policy to learn more. By continuing to use the site, you agree to this use of cookies and data.
  • In Romania
  • List of Countries
  • For 7 days
  • Water Temperature
  • Satellite Maps
  • Weather Map
  • Weather Widgets
  • user-avatar
    Login

    Hourly Weather Ussodica

    Today, 19 February, Tuesday

    Time Temperature Precipitation Wind Pressure Humidity
    00:00 -6°C° 0 mm 2 mps 751 mmHg 88%
    01:00 -7°C° 0 mm 3 mps 751 mmHg 86%
    02:00 -6°C° 0 mm 2 mps 750 mmHg 85%
    03:00 -7°C° 0 mm 3 mps 750 mmHg 83%
    04:00 -7°C° 0 mm 3 mps 749 mmHg 81%
    05:00 -8°C° 0 mm 4 mps 749 mmHg 79%
    06:00 -8°C° 0 mm 4 mps 748 mmHg 79%
    07:00 -7°C° 0 mm 4 mps 748 mmHg 78%
    08:00 -7°C° 0 mm 4 mps 748 mmHg 78%
    09:00 -5°C° 0 mm 4 mps 747 mmHg 76%
    10:00 -4°C° 0 mm 5 mps 747 mmHg 75%
    11:00 -2°C° 0 mm 5 mps 746 mmHg 73%
    12:00 -1°C° 0 mm 5 mps 745 mmHg 75%
    13:00 -1°C° 0 mm 5 mps 745 mmHg 76%
    14:00 0°C° 0 mm 5 mps 744 mmHg 77%
    15:00 0°C° 0 mm 5 mps 743 mmHg 80%
    16:00 -1°C° 0 mm 5 mps 743 mmHg 83%
    17:00 -1°C° 0 mm 5 mps 742 mmHg 86%
    18:00 -1°C° 0 mm 5 mps 742 mmHg 87%
    19:00 -1°C° 0 mm 5 mps 741 mmHg 87%
    20:00 -1°C° 0 mm 5 mps 740 mmHg 88%
    21:00 -1°C° 0 mm 5 mps 740 mmHg 89%
    22:00 0°C° 0 mm 5 mps 739 mmHg 90%
    23:00 0°C° 0 mm 4 mps 738 mmHg 91%

    Tomorrow, 20 February, Wednesday

    Time Temperature Precipitation Wind Pressure Humidity
    00:00 0°C° 0 mm 4 mps 737 mmHg 91%
    01:00 0°C° 0 mm 4 mps 737 mmHg 91%
    02:00 0°C° 0 mm 4 mps 737 mmHg 92%
    03:00 0°C° 0.2 mm 4 mps 736 mmHg 92%
    04:00 0°C° 0.2 mm 4 mps 736 mmHg 92%
    05:00 0°C° 0.2 mm 4 mps 736 mmHg 92%
    06:00 0°C° 0 mm 4 mps 736 mmHg 93%
    07:00 0°C° 0 mm 4 mps 736 mmHg 93%
    08:00 0°C° 0 mm 4 mps 736 mmHg 93%
    09:00 0°C° 0.1 mm 4 mps 735 mmHg 92%
    10:00 0°C° 0.1 mm 4 mps 735 mmHg 90%
    11:00 +1°C° 0.1 mm 4 mps 735 mmHg 89%
    12:00 +1°C° 0.1 mm 4 mps 735 mmHg 88%
    13:00 +1°C° 0.1 mm 4 mps 735 mmHg 88%
    14:00 +1°C° 0.1 mm 4 mps 735 mmHg 87%
    15:00 +1°C° 0.2 mm 4 mps 735 mmHg 87%
    16:00 0°C° 0.2 mm 4 mps 734 mmHg 87%
    17:00 0°C° 0.2 mm 4 mps 734 mmHg 88%
    18:00 0°C° 0.4 mm 4 mps 734 mmHg 87%
    19:00 0°C° 0.4 mm 5 mps 734 mmHg 87%
    20:00 0°C° 0.4 mm 5 mps 734 mmHg 87%
    21:00 -2°C° 0.1 mm 4 mps 734 mmHg 86%
    22:00 -3°C° 0.1 mm 4 mps 734 mmHg 85%
    23:00 -4°C° 0.1 mm 4 mps 734 mmHg 84%

    Day after tomorrow, 21 February, Thursday

    Time Temperature Precipitation Wind Pressure Humidity
    00:00 -5°C° 0.2 mm 5 mps 735 mmHg 83%
    01:00 -5°C° 0.2 mm 5 mps 735 mmHg 81%
    02:00 -5°C° 0.2 mm 6 mps 736 mmHg 80%
    03:00 -5°C° 0.1 mm 6 mps 736 mmHg 79%
    04:00 -5°C° 0.1 mm 6 mps 737 mmHg 78%
    05:00 -6°C° 0.1 mm 6 mps 737 mmHg 77%
    06:00 -6°C° 0.1 mm 6 mps 738 mmHg 74%
    07:00 -8°C° 0.1 mm 6 mps 738 mmHg 72%
    08:00 -8°C° 0.1 mm 6 mps 739 mmHg 70%
    09:00 -8°C° 0.1 mm 6 mps 740 mmHg 70%
    10:00 -8°C° 0.1 mm 6 mps 740 mmHg 70%
    11:00 -8°C° 0.1 mm 6 mps 741 mmHg 70%
    12:00 -6°C° 0.1 mm 6 mps 741 mmHg 69%
    13:00 -6°C° 0.1 mm 6 mps 742 mmHg 68%
    14:00 -6°C° 0.1 mm 6 mps 742 mmHg 67%
    15:00 -8°C° 0.1 mm 6 mps 743 mmHg 68%
    16:00 -8°C° 0.1 mm 6 mps 744 mmHg 69%
    17:00 -9°C° 0.1 mm 6 mps 744 mmHg 70%
    18:00 -10°C° 0 mm 6 mps 745 mmHg 71%
    19:00 -10°C° 0 mm 6 mps 746 mmHg 71%
    20:00 -11°C° 0 mm 5 mps 747 mmHg 72%
    21:00 -11°C° 0 mm 5 mps 748 mmHg 71%
    22:00 -12°C° 0 mm 5 mps 748 mmHg 70%
    23:00 -12°C° 0 mm 5 mps 749 mmHg 70%

    22 February, Friday

    Time Temperature Precipitation Wind Pressure Humidity
    00:00 -12°C° 0 mm 5 mps 749 mmHg 70%
    01:00 -13°C° 0 mm 5 mps 750 mmHg 70%
    02:00 -13°C° 0 mm 5 mps 751 mmHg 71%
    03:00 -13°C° 0 mm 5 mps 751 mmHg 71%
    04:00 -14°C° 0 mm 5 mps 752 mmHg 72%
    05:00 -14°C° 0 mm 5 mps 753 mmHg 73%
    06:00 -14°C° 0 mm 5 mps 753 mmHg 72%
    07:00 -14°C° 0 mm 5 mps 754 mmHg 71%
    08:00 -14°C° 0 mm 5 mps 754 mmHg 70%
    09:00 -13°C° 0 mm 5 mps 755 mmHg 69%
    10:00 -12°C° 0 mm 5 mps 755 mmHg 68%
    11:00 -11°C° 0 mm 5 mps 755 mmHg 67%
    12:00 -10°C° 0 mm 5 mps 755 mmHg 63%
    13:00 -10°C° 0 mm 5 mps 755 mmHg 59%
    14:00 -9°C° 0 mm 6 mps 755 mmHg 55%
    15:00 -10°C° 0 mm 6 mps 755 mmHg 60%
    16:00 -10°C° 0 mm 5 mps 755 mmHg 65%
    17:00 -11°C° 0 mm 5 mps 755 mmHg 70%
    18:00 -11°C° 0 mm 5 mps 756 mmHg 71%
    19:00 -11°C° 0 mm 5 mps 756 mmHg 71%
    20:00 -12°C° 0 mm 5 mps 757 mmHg 72%
    21:00 -12°C° 0 mm 5 mps 757 mmHg 72%
    22:00 -13°C° 0 mm 5 mps 757 mmHg 72%
    23:00 -14°C° 0 mm 4 mps 758 mmHg 72%

    23 February, Saturday

    Time Temperature Precipitation Wind Pressure Humidity
    00:00 -14°C° 0 mm 4 mps 758 mmHg 73%
    01:00 -14°C° 0 mm 4 mps 759 mmHg 74%
    02:00 -15°C° 0 mm 4 mps 759 mmHg 75%
    03:00 -15°C° 0 mm 4 mps 759 mmHg 77%
    04:00 -14°C° 0 mm 3 mps 759 mmHg 79%
    05:00 -14°C° 0 mm 3 mps 759 mmHg 81%
    06:00 -14°C° 0 mm 3 mps 760 mmHg 81%
    07:00 -14°C° 0 mm 3 mps 760 mmHg 82%
    08:00 -15°C° 0 mm 3 mps 760 mmHg 83%
    09:00 -14°C° 0 mm 3 mps 760 mmHg 79%
    10:00 -13°C° 0 mm 3 mps 760 mmHg 75%
    11:00 -12°C° 0 mm 3 mps 760 mmHg 71%
    12:00 -10°C° 0 mm 3 mps 760 mmHg 68%
    13:00 -9°C° 0 mm 3 mps 760 mmHg 65%
    14:00 -8°C° 0 mm 3 mps 760 mmHg 63%
    15:00 -8°C° 0 mm 2 mps 760 mmHg 66%
    16:00 -8°C° 0 mm 2 mps 760 mmHg 70%
    17:00 -9°C° 0 mm 2 mps 760 mmHg 74%
    18:00 -8°C° 0 mm 1 mps 760 mmHg 76%
    19:00 -8°C° 0 mm 1 mps 760 mmHg 77%
    20:00 -8°C° 0 mm 1 mps 761 mmHg 79%
    21:00 -8°C° 0 mm 1 mps 761 mmHg 80%
    22:00 -8°C° 0 mm 1 mps 761 mmHg 80%
    23:00 -9°C° 0 mm 0 mps 761 mmHg 81%

    24 February, Sunday

    Time Temperature Precipitation Wind Pressure Humidity
    00:00 -9°C° 0 mm 0 mps 761 mmHg 80%
    01:00 -9°C° 0 mm 0 mps 761 mmHg 80%
    02:00 -9°C° 0 mm 0 mps 761 mmHg 79%
    03:00 -9°C° 0 mm 0 mps 761 mmHg 78%
    04:00 -9°C° 0 mm 0 mps 761 mmHg 78%
    05:00 -9°C° 0 mm 1 mps 761 mmHg 77%
    06:00 -9°C° 0 mm 1 mps 761 mmHg 77%
    07:00 -9°C° 0 mm 1 mps 761 mmHg 78%
    08:00 -8°C° 0 mm 1 mps 762 mmHg 78%
    09:00 -7°C° 0 mm 1 mps 762 mmHg 77%
    10:00 -4°C° 0 mm 1 mps 762 mmHg 77%
    11:00 -3°C° 0 mm 1 mps 762 mmHg 77%
    12:00 -4°C° 0 mm 2 mps 761 mmHg 77%
    13:00 -3°C° 0 mm 2 mps 761 mmHg 78%
    14:00 -2°C° 0 mm 2 mps 761 mmHg 79%
    15:00 -3°C° 0 mm 2 mps 760 mmHg 83%
    16:00 -4°C° 0 mm 2 mps 760 mmHg 88%
    17:00 -4°C° 0 mm 2 mps 760 mmHg 92%
    18:00 -4°C° 0 mm 2 mps 760 mmHg 92%
    19:00 -4°C° 0 mm 2 mps 759 mmHg 92%
    20:00 -4°C° 0 mm 2 mps 759 mmHg 92%
    21:00 -4°C° 0 mm 2 mps 759 mmHg 93%
    22:00 -4°C° 0 mm 2 mps 758 mmHg 93%
    23:00 -4°C° 0 mm 2 mps 758 mmHg 94%
    Show more